Regional Weather Roundup
Issued by NWS

Home | Current Version | Previous Version | Graphics & Text | Print | Product List | Glossary On
Versions: 1 2 3 4 5 6 7 8 9 10 11 12 13 14 15 16 17 18 19 20 21 22 23 24 25 26 27 28 29 30 31 32 33 34 35 36 37 38 39 40 41 42 43 44 45 46 47 48 49 50
000
ASUS43 KFSD 211702
RWRSD

WEATHER ROUNDUP FOR SOUTH DAKOTA
NATIONAL WEATHER SERVICE SIOUX FALLS SD
1200 PM CDT THU AUG 21 2014

NOTE: "FAIR" INDICATES FEW OR NO CLOUDS BELOW 12,000 FEET WITH NO
SIGNIFICANT WEATHER AND/OR OBSTRUCTIONS TO VISIBILITY.


SDZ001>005-009-010-012>017-211800-
NORTHWEST AND NORTH CENTRAL SOUTH DAKOTA

CITY           SKY/WX    TMP DP  RH WIND       PRES   REMARKS
BUFFALO          N/A     77  56  48 VRB6      29.90S
FAITH            N/A     77  58  51 N10       29.92S
MOBRIDGE       SUNNY     76  66  71 N9        29.83R
$$

SDZ012>016-024>037-041>051-057-063-072>074-211800-
SOUTHWEST AND SOUTH CENTRAL SOUTH DAKOTA

CITY           SKY/WX    TMP DP  RH WIND       PRES   REMARKS
RAPID CTY ARPT SUNNY     75  57  53 NE9       29.98S
PIERRE         MOSUNNY   79  64  60 NW12      29.86R
CUSTER         SUNNY     70  51  51 SE6       30.09F
ELLSWORTH AFB  SUNNY     76  55  48 E5        29.98S
PHILIP         SUNNY     81  57  43 VRB7      29.92R
PINE RIDGE     MOSUNNY   77  56  48 N10G16    29.99R
WINNER         FAIR      80  65  59 N5        29.88S
$$

SDZ004>011-016>023-039-040-211800-
NORTHEAST SOUTH DAKOTA

CITY           SKY/WX    TMP DP  RH WIND       PRES   REMARKS
ABERDEEN       PTSUNNY   76  68  76 NW9       29.78S
WATERTOWN      SUNNY     79  70  74 W12       29.79R
SISSETON         N/A     81  71  71 N10       29.75S
$$

SDZ017-020-022-023-036>040-048>070-211800-
SOUTHEAST SOUTH DAKOTA

CITY           SKY/WX    TMP DP  RH WIND       PRES   REMARKS
SIOUX FALLS    MOSUNNY   85  74  69 W6        29.77S
HURON          MOSUNNY   80  68  66 NW13      29.80R
CHAMBERLAIN    SUNNY     77  66  69 NW7       29.85S
MITCHELL       PTSUNNY   81  72  74 NW10      29.80S
YANKTON        PTSUNNY   82  73  74 S7        29.78R
$$

ABBREVIATIONS USED IN REMARKS
   TC - TEMPERATURE IN CELSIUS
  WCI - WIND CHILL INDEX
   HX - HEAT INDEX
  VSB - VISIBILITY




USA.gov is the U.S. government's official web portal to all federal, state and local government web resources and services.